METAR Formatted Surface Weather Observation
Issued by NWS

Home | Current Version | Previous Version | Text Only | Print | Product List | Glossary On
Versions: 1 2 3 4 5 6 7 8 9 10 11 12 13 14 15 16 17 18 19 20 21 22 23 24 25 26 27 28 29 30 31 32 33 34 35 36 37 38 39 40 41 42 43 44 45 46 47 48 49 50
000
SAUS45 KMSO 210154
MTRP69
METAR KP69 210152Z AUTO 00000KT 07/05 A3006 RMK AO1 SLP191 T00670050


USA.gov is the U.S. government's official web portal to all federal, state and local government web resources and services.
  • National Weather Service
  • El Paso, TX Weather Forecast Office
  • 7955 Airport Rd
  • Santa Teresa, NM 88008
  • (575) 589-4088
  • Page Author: EPZ Webmaster
  • Web Master's E-mail: sr-epz.webmaster@noaa.gov
  • Page last modified: Apr 16th, 2019 21:10 UTC